"Pseudo-MPEC" for P10OvCu

Created 2019 Jun 15 19:09:33 UT using Find_Orb

Click here for an explanation of pseudo-MPECs

 
 Astrometry: 
     P10OvCu  C2019 06 01H1WYFy'7)YfCFC+*svU3F1.bfYY^'D;Astrometryj;vKRY*#*;.F51
     P10OvCu  C2019 06 01h4'dCaRCr`,8s?QUcmJ-.F2:Zp3]T(EBp'a:h9];SC-'^\Y+`A9,F51
     P10OvCu  C2019 06 01S.f$A#X##Ut*hLU%gbIOi?3%yse@fLMtl+opdsssGW55)j:q,=v7F51
     P10OvCu  C2019 06 02g!6`g0M97G+CqUaD(Zk_oC9t:ElnA)[wsB)IW@J=Ar$eT^Vn-67eF51
     P10OvCu  C2019 06 02QFWyA`ZrYV6%m6PdTq6X7jqm^$^u%I%ZYt:s-p/IvW_LA9w1L4UCF51
     P10OvCu ^C2019 06 03.53028921 56 29.698+12 19 44.28   ~63K7 22.14GVNEOCP568
     P10OvCu ^C2019 06 03.53125621 56 29.797+12 19 46.09   ~63K7 22.10GVNEOCP568
     P10OvCu ^C2019 06 03.53223721 56 29.895+12 19 47.85   ~63K7 22.02GVNEOCP568
     P10OvCu KC2019 06 07\:!@iZCJ_#)`Qwredacted;3^nBaDyptclick:m+f\acUd^xE[^8291
     P10OvCu KC2019 06 07`xi]1'QThO-hy(\mg)(eGhere7*_6)@lgXR@for!6Q\A_JqmlpO)291
     P10OvCu KC2019 06 07=p+FyKmj/,Z8LMY^%y9oQu76explanationyb]l2fOP]ZP6_xn*a291

Station data:
(291) LPL/Spacewatch II  (N31.961669 W111.599905)  US/Arizona.  Observers J.
   V. Scotti, R. S. McMillan. 1.8-m f/2.7 reflector + CCD.
(568) Mauna Kea  (N19.826116 W155.472200)  US/Hawaii.
(F51) Pan-STARRS 1, Haleakala  (N20.707235 W156.255910)  US/Hawaii.
   Observers N. Primak, A. Schultz, S. Watters, J. Thiel, T. Goggia. Measurer
   PS1 Science Consortium. 1.8-m Ritchey-Chrétien + CCD.

Orbital elements:  P10OvCu
   Perihelion 2019 Aug 22.345274 +/- 2.15 TT =  8:17:11 (JD 2458717.845274)
Epoch 2019 Jun  7.0 TT = JDT 2458641.5   Earth MOID: 0.6920   AutoNEOCP
M 342.13763645 +/- 1.5              (J2000 ecliptic)
n   0.23396816 +/- 0.015            Peri.   96.86889 +/- 1.5
a   2.60834401 +/- 0.111            Node   249.05715 +/- 0.47
e   0.4177207 +/- 0.0204            Incl.   22.27322 +/- 0.15
P   4.21                   H 19.1   G  0.15   U  9.9  
q 1.51878469 +/- 0.0123    Q 3.69790333 +/- 0.224
From 11 observations 2019 June 1-7; mean residual 0".14
Residuals in arcseconds: 
190601 F51  .14-  .06-    190602 F51  .05+  .01+    190607 291  .47-  .16+    
190601 F51  .01-  .05-    190603 568  .02-  .01-    190607 291  .29+  .19-    
190601 F51  .12+  .09+    190603 568  .00   .01+    190607 291  .18+  .04+    
190602 F51  .01+  .04+    190603 568  .00   .04-    

Ephemerides (geocentric):
Date (UTC) HH   RA              Dec         delta   r     elong  mag " sig PA
---- -- -- --  -------------   -----------  ------ ------ -----  --- ---- ---
2019 06 15 19  22 16 57.409   +18 46 00.38  1.1255 1.6331  99.3 22.0 5.40 152
2019 06 15 20  22 17 01.479   +18 47 20.88  1.1251 1.6329  99.3 22.0 5.44 152
2019 06 15 21  22 17 05.547   +18 48 41.39  1.1248 1.6328  99.3 22.0 5.49 152
2019 06 15 22  22 17 09.616   +18 50 01.91  1.1245 1.6327  99.3 22.0 5.54 152
2019 06 15 23  22 17 13.683   +18 51 22.44  1.1241 1.6325  99.3 22.0 5.58 152
2019 06 16 00  22 17 17.750   +18 52 42.97  1.1238 1.6324  99.3 22.0 5.63 152
2019 06 16 01  22 17 21.815   +18 54 03.52  1.1235 1.6323  99.3 22.0 5.68 152
2019 06 16 02  22 17 25.881   +18 55 24.07  1.1231 1.6321  99.3 22.0 5.72 152
2019 06 16 03  22 17 29.945   +18 56 44.64  1.1228 1.6320  99.4 22.0 5.77 153
2019 06 16 04  22 17 34.009   +18 58 05.21  1.1225 1.6319  99.4 22.0 5.82 153
2019 06 16 05  22 17 38.072   +18 59 25.79  1.1222 1.6318  99.4 22.0 5.87 153
2019 06 16 06  22 17 42.134   +19 00 46.38  1.1218 1.6316  99.4 22.0 5.92 153
2019 06 16 07  22 17 46.195   +19 02 06.98  1.1215 1.6315  99.4 22.0 5.97 153
2019 06 16 08  22 17 50.256   +19 03 27.59  1.1212 1.6314  99.4 22.0 6.01 153
2019 06 16 09  22 17 54.316   +19 04 48.20  1.1209 1.6312  99.4 22.0 6.06 153
2019 06 16 10  22 17 58.375   +19 06 08.83  1.1205 1.6311  99.4 22.0 6.11 153
2019 06 16 11  22 18 02.434   +19 07 29.46  1.1202 1.6310  99.4 22.0 6.16 153
2019 06 16 12  22 18 06.492   +19 08 50.10  1.1199 1.6308  99.5 22.0 6.21 153
2019 06 16 13  22 18 10.549   +19 10 10.75  1.1195 1.6307  99.5 22.0 6.26 153
2019 06 16 14  22 18 14.605   +19 11 31.41  1.1192 1.6306  99.5 22.0 6.31 153
2019 06 16 15  22 18 18.661   +19 12 52.08  1.1189 1.6304  99.5 22.0 6.36 153
2019 06 16 16  22 18 22.716   +19 14 12.75  1.1186 1.6303  99.5 22.0 6.41 153
2019 06 16 17  22 18 26.770   +19 15 33.44  1.1182 1.6302  99.5 22.0 6.47 153
2019 06 16 18  22 18 30.823   +19 16 54.13  1.1179 1.6300  99.5 22.0 6.52 153
2019 06 16 19  22 18 34.876   +19 18 14.83  1.1176 1.6299  99.5 22.0 6.57 153
2019 06 16 20  22 18 38.928   +19 19 35.54  1.1173 1.6298  99.5 22.0 6.62 153
2019 06 16 21  22 18 42.979   +19 20 56.26  1.1169 1.6297  99.5 22.0 6.67 153
2019 06 16 22  22 18 47.030   +19 22 16.99  1.1166 1.6295  99.6 22.0 6.72 154
2019 06 16 23  22 18 51.079   +19 23 37.72  1.1163 1.6294  99.6 22.0 6.78 154
2019 06 17 00  22 18 55.128   +19 24 58.46  1.1160 1.6293  99.6 22.0 6.83 154
2019 06 17 01  22 18 59.177   +19 26 19.21  1.1156 1.6291  99.6 22.0 6.88 154
2019 06 17 02  22 19 03.224   +19 27 39.97  1.1153 1.6290  99.6 22.0 6.93 154
2019 06 17 03  22 19 07.271   +19 29 00.74  1.1150 1.6289  99.6 22.0 6.99 154
2019 06 17 04  22 19 11.317   +19 30 21.51  1.1147 1.6287  99.6 22.0 7.04 154
2019 06 17 05  22 19 15.362   +19 31 42.30  1.1143 1.6286  99.6 22.0 7.10 154
2019 06 17 06  22 19 19.406   +19 33 03.09  1.1140 1.6285  99.6 22.0 7.15 154
2019 06 17 07  22 19 23.450   +19 34 23.89  1.1137 1.6284  99.6 22.0 7.20 154
2019 06 17 08  22 19 27.493   +19 35 44.69  1.1134 1.6282  99.7 22.0 7.26 154
2019 06 17 09  22 19 31.535   +19 37 05.51  1.1131 1.6281  99.7 22.0 7.31 154
2019 06 17 10  22 19 35.577   +19 38 26.33  1.1127 1.6280  99.7 22.0 7.37 154
2019 06 17 11  22 19 39.618   +19 39 47.16  1.1124 1.6278  99.7 22.0 7.42 154
2019 06 17 12  22 19 43.658   +19 41 08.00  1.1121 1.6277  99.7 22.0 7.48 154
2019 06 17 13  22 19 47.697   +19 42 28.85  1.1118 1.6276  99.7 22.0 7.54 154
2019 06 17 14  22 19 51.736   +19 43 49.70  1.1114 1.6274  99.7 22.0 7.59 154
2019 06 17 15  22 19 55.773   +19 45 10.56  1.1111 1.6273  99.7 22.0 7.65 154
2019 06 17 16  22 19 59.810   +19 46 31.43  1.1108 1.6272  99.7 22.0 7.70 154
2019 06 17 17  22 20 03.847   +19 47 52.31  1.1105 1.6271  99.7 22.0 7.76 154
2019 06 17 18  22 20 07.882   +19 49 13.19  1.1102 1.6269  99.8 22.0 7.82 155